Time,TemperatureF,DewpointF,PressureIn,WindDirection,WindDirectionDegrees,WindSpeedMPH,WindSpeedGustMPH,Humidity,HourlyPrecipIn,Conditions,Clouds,dailyrainin,SoftwareType,DateUTC
2013-02-09 00:01:00,38.0,34.0,29.73,SSW,209,3.0,5.0,85,0.00,,,0.02,,2013-02-09 08:01:00,
2013-02-09 00:11:00,38.0,34.0,29.73,SSW,209,3.0,5.0,85,0.00,,,0.02,,2013-02-09 08:11:00,
2013-02-09 00:21:00,38.0,33.0,29.74,North,0,0.0,4.0,83,0.00,,,0.02,,2013-02-09 08:21:00,
2013-02-09 00:31:00,38.0,33.0,29.74,North,0,0.0,4.0,83,0.00,,,0.02,,2013-02-09 08:31:00,
2013-02-09 00:41:00,38.0,33.0,29.74,North,0,0.0,4.0,83,0.00,,,0.02,,2013-02-09 08:41:00,
2013-02-09 00:52:00,38.0,34.0,29.74,SSW,207,2.0,4.0,84,0.00,,,0.02,,2013-02-09 08:52:00,
2013-02-09 01:02:00,38.0,31.0,29.75,North,0,0.0,0.0,77,0.00,,,0.02,,2013-02-09 09:02:00,
2013-02-09 01:11:00,38.0,31.0,29.75,North,0,0.0,0.0,77,0.00,,,0.02,,2013-02-09 09:11:00,
2013-02-09 01:21:00,38.0,31.0,29.75,North,0,0.0,0.0,77,0.00,,,0.02,,2013-02-09 09:21:00,
2013-02-09 01:31:00,38.0,31.0,29.75,North,0,0.0,0.0,77,0.00,,,0.02,,2013-02-09 09:31:00,
2013-02-09 01:41:00,38.0,31.0,29.75,North,0,0.0,0.0,77,0.00,,,0.02,,2013-02-09 09:41:00,
2013-02-09 01:52:00,39.0,32.0,29.75,WNW,285,7.0,8.0,77,0.00,,,0.02,,2013-02-09 09:52:00,
2013-02-09 02:01:00,39.0,32.0,29.75,WNW,285,7.0,8.0,77,0.00,,,0.02,,2013-02-09 10:01:00,
2013-02-09 02:11:00,39.0,32.0,29.75,WNW,285,7.0,8.0,77,0.00,,,0.02,,2013-02-09 10:11:00,
2013-02-09 02:21:00,38.0,32.0,29.75,North,0,0.0,2.0,79,0.00,,,0.02,,2013-02-09 10:21:00,
2013-02-09 02:32:00,38.0,32.0,29.75,North,0,0.0,2.0,79,0.00,,,0.02,,2013-02-09 10:32:00,
2013-02-09 02:42:00,38.0,32.0,29.75,North,0,0.0,2.0,79,0.00,,,0.02,,2013-02-09 10:42:00,
2013-02-09 02:52:00,38.0,30.0,29.75,North,0,0.0,5.0,73,0.00,,,0.02,,2013-02-09 10:52:00,
2013-02-09 03:01:00,38.0,29.0,29.75,North,0,0.0,6.0,70,0.00,,,0.02,,2013-02-09 11:01:00,
2013-02-09 03:11:00,38.0,29.0,29.75,North,0,0.0,6.0,70,0.00,,,0.02,,2013-02-09 11:11:00,
2013-02-09 03:21:00,39.0,30.0,29.75,North,0,0.0,7.0,69,0.00,,,0.02,,2013-02-09 11:21:00,
2013-02-09 03:31:00,39.0,30.0,29.75,North,0,0.0,7.0,69,0.00,,,0.02,,2013-02-09 11:31:00,
2013-02-09 03:41:00,39.0,30.0,29.75,North,0,0.0,7.0,69,0.00,,,0.02,,2013-02-09 11:41:00,
2013-02-09 03:52:00,38.0,28.0,29.75,North,0,0.0,0.0,68,0.00,,,0.02,,2013-02-09 11:52:00,
2013-02-09 04:01:00,40.0,29.0,29.75,NW,319,2.0,5.0,64,0.00,,,0.02,,2013-02-09 12:01:00,
2013-02-09 04:11:00,40.0,29.0,29.75,NW,319,2.0,5.0,64,0.00,,,0.02,,2013-02-09 12:11:00,
2013-02-09 04:21:00,40.0,28.0,29.75,WNW,290,3.0,5.0,62,0.00,,,0.02,,2013-02-09 12:21:00,
2013-02-09 04:32:00,40.0,28.0,29.75,WNW,290,3.0,5.0,62,0.00,,,0.02,,2013-02-09 12:32:00,
2013-02-09 04:41:00,40.0,28.0,29.75,WNW,290,3.0,5.0,62,0.00,,,0.02,,2013-02-09 12:41:00,
2013-02-09 04:52:00,39.0,28.0,29.76,NW,315,7.0,8.0,65,0.00,,,0.02,,2013-02-09 12:52:00,
2013-02-09 05:01:00,39.0,28.0,29.76,WNW,303,8.0,10.0,65,0.00,,,0.02,,2013-02-09 13:01:00,
2013-02-09 05:11:00,39.0,28.0,29.76,WNW,303,8.0,10.0,65,0.00,,,0.02,,2013-02-09 13:11:00,
2013-02-09 05:21:00,39.0,28.0,29.76,NW,318,1.0,5.0,64,0.00,,,0.02,,2013-02-09 13:21:00,
2013-02-09 05:31:00,39.0,28.0,29.76,NW,318,1.0,5.0,64,0.00,,,0.02,,2013-02-09 13:31:00,
2013-02-09 05:41:00,39.0,28.0,29.76,NW,318,1.0,5.0,64,0.00,,,0.02,,2013-02-09 13:41:00,
2013-02-09 05:52:00,39.0,29.0,29.77,North,0,0.0,5.0,66,0.00,,,0.02,,2013-02-09 13:52:00,
2013-02-09 06:01:00,38.0,29.0,29.77,WNW,293,3.0,8.0,69,0.00,,,0.02,,2013-02-09 14:01:00,
2013-02-09 06:11:00,38.0,29.0,29.77,WNW,293,3.0,8.0,69,0.00,,,0.02,,2013-02-09 14:11:00,
2013-02-09 06:21:00,38.0,29.0,29.77,NW,322,4.0,6.0,69,0.00,,,0.02,,2013-02-09 14:21:00,
2013-02-09 06:31:00,38.0,29.0,29.77,NW,322,4.0,6.0,69,0.00,,,0.02,,2013-02-09 14:31:00,
2013-02-09 06:41:00,38.0,29.0,29.77,NW,322,4.0,6.0,69,0.00,,,0.02,,2013-02-09 14:41:00,
2013-02-09 06:52:00,38.0,29.0,29.77,North,0,0.0,7.0,69,0.00,,,0.02,,2013-02-09 14:52:00,
2013-02-09 07:01:00,39.0,29.0,29.77,NNW,342,6.0,12.0,68,0.00,,,0.02,,2013-02-09 15:01:00,
2013-02-09 07:11:00,39.0,29.0,29.77,NNW,342,6.0,12.0,68,0.00,,,0.02,,2013-02-09 15:11:00,
2013-02-09 07:22:00,39.0,-99.9,29.78,North,-999,-999.0,6.0,-999,0.00,,,0.02,,2013-02-09 15:22:00,
2013-02-09 07:32:00,39.0,-99.9,29.78,North,-999,-999.0,6.0,-999,0.00,,,0.02,,2013-02-09 15:32:00,
2013-02-09 07:42:00,39.0,-99.9,29.78,North,-999,-999.0,6.0,-999,0.00,,,0.02,,2013-02-09 15:42:00,
2013-02-09 12:01:00,46.0,33.0,29.86,SE,142,3.0,8.0,60,0.00,,,0.02,,2013-02-09 20:01:00,
2013-02-09 12:11:00,46.0,33.0,29.86,SE,142,3.0,8.0,60,0.00,,,0.02,,2013-02-09 20:11:00,
2013-02-09 12:21:00,47.0,35.0,29.86,SSE,167,1.0,5.0,62,0.00,,,0.02,,2013-02-09 20:21:00,
2013-02-09 12:31:00,47.0,35.0,29.86,SSE,167,1.0,5.0,62,0.00,,,0.02,,2013-02-09 20:31:00,
2013-02-09 12:41:00,47.0,35.0,29.86,SSE,167,1.0,5.0,62,0.00,,,0.02,,2013-02-09 20:41:00,
2013-02-09 12:52:00,46.0,32.0,29.86,SSE,164,1.0,6.0,59,0.00,,,0.02,,2013-02-09 20:52:00,
2013-02-09 13:01:00,47.0,33.0,29.85,North,0,0.0,8.0,58,0.00,,,0.02,,2013-02-09 21:01:00,
2013-02-09 13:11:00,47.0,33.0,29.85,North,0,0.0,8.0,58,0.00,,,0.02,,2013-02-09 21:11:00,
2013-02-09 13:21:00,48.0,33.0,29.85,SSE,166,5.0,10.0,56,0.00,,,0.02,,2013-02-09 21:21:00,
2013-02-09 13:31:00,48.0,33.0,29.85,SSE,166,5.0,10.0,56,0.00,,,0.02,,2013-02-09 21:31:00,
2013-02-09 13:41:00,48.0,33.0,29.85,SSE,166,5.0,10.0,56,0.00,,,0.02,,2013-02-09 21:41:00,
2013-02-09 13:52:00,46.0,32.0,29.84,South,180,3.0,10.0,57,0.00,,,0.02,,2013-02-09 21:52:00,
2013-02-09 14:01:00,46.0,32.0,29.84,South,178,7.0,14.0,59,0.00,,,0.02,,2013-02-09 22:01:00,
2013-02-09 14:11:00,46.0,32.0,29.84,South,178,7.0,14.0,59,0.00,,,0.02,,2013-02-09 22:11:00,
2013-02-09 14:21:00,46.0,32.0,29.84,SSE,167,5.0,13.0,58,0.00,,,0.02,,2013-02-09 22:21:00,
2013-02-09 14:31:00,46.0,32.0,29.84,SSE,167,5.0,13.0,58,0.00,,,0.02,,2013-02-09 22:31:00,
2013-02-09 14:41:00,46.0,32.0,29.84,SSE,167,5.0,13.0,58,0.00,,,0.02,,2013-02-09 22:41:00,
2013-02-09 14:52:00,47.0,33.0,29.84,South,169,3.0,10.0,58,0.00,,,0.02,,2013-02-09 22:52:00,
2013-02-09 15:01:00,47.0,33.0,29.84,North,0,0.0,9.0,57,0.00,,,0.02,,2013-02-09 23:01:00,
2013-02-09 15:11:00,47.0,33.0,29.84,North,0,0.0,9.0,57,0.00,,,0.02,,2013-02-09 23:11:00,
2013-02-09 15:21:00,49.0,33.0,29.84,South,173,1.0,5.0,53,0.00,,,0.02,,2013-02-09 23:21:00,
2013-02-09 15:31:00,49.0,33.0,29.84,South,173,1.0,5.0,53,0.00,,,0.02,,2013-02-09 23:31:00,
2013-02-09 15:41:00,49.0,33.0,29.84,South,173,1.0,5.0,53,0.00,,,0.02,,2013-02-09 23:41:00,
2013-02-09 15:52:00,48.0,33.0,29.84,South,180,2.0,7.0,55,0.00,,,0.02,,2013-02-09 23:52:00,
2013-02-09 16:02:00,47.0,32.0,29.84,South,171,3.0,7.0,56,0.00,,,0.02,,2013-02-10 00:02:00,
2013-02-09 16:11:00,47.0,32.0,29.84,South,171,3.0,7.0,56,0.00,,,0.02,,2013-02-10 00:11:00,
2013-02-09 16:21:00,47.0,34.0,29.84,SW,234,2.0,11.0,60,0.00,,,0.02,,2013-02-10 00:21:00,
2013-02-09 16:31:00,47.0,34.0,29.84,SW,234,2.0,11.0,60,0.00,,,0.02,,2013-02-10 00:31:00,
2013-02-09 16:41:00,47.0,34.0,29.84,SW,234,2.0,11.0,60,0.00,,,0.02,,2013-02-10 00:41:00,
2013-02-09 16:52:00,47.0,33.0,29.84,South,190,6.0,13.0,59,0.00,,,0.02,,2013-02-10 00:52:00,
2013-02-09 17:01:00,46.0,34.0,29.84,SSW,202,8.0,11.0,62,0.00,,,0.02,,2013-02-10 01:01:00,
2013-02-09 17:11:00,46.0,34.0,29.84,SSW,202,8.0,11.0,62,0.00,,,0.02,,2013-02-10 01:11:00,
2013-02-09 17:21:00,46.0,34.0,29.84,WSW,245,6.0,10.0,63,0.00,,,0.02,,2013-02-10 01:21:00,
2013-02-09 17:31:00,46.0,34.0,29.84,WSW,245,6.0,10.0,63,0.00,,,0.02,,2013-02-10 01:31:00,
2013-02-09 17:41:00,46.0,34.0,29.84,WSW,245,6.0,10.0,63,0.00,,,0.02,,2013-02-10 01:41:00,
2013-02-09 17:52:00,46.0,34.0,29.84,WSW,245,6.0,10.0,63,0.00,,,0.02,,2013-02-10 01:52:00,
2013-02-09 18:01:00,44.0,31.0,29.84,WSW,252,7.0,11.0,60,0.00,,,0.01,,2013-02-10 02:01:00,
2013-02-09 18:11:00,44.0,31.0,29.84,WSW,252,7.0,11.0,60,0.00,,,0.01,,2013-02-10 02:11:00,
2013-02-09 18:22:00,44.0,28.0,29.84,WSW,253,4.0,10.0,53,0.00,,,0.01,,2013-02-10 02:22:00,
2013-02-09 18:31:00,44.0,28.0,29.84,WSW,253,4.0,10.0,53,0.00,,,0.01,,2013-02-10 02:31:00,
2013-02-09 18:41:00,44.0,28.0,29.84,WSW,253,4.0,10.0,53,0.00,,,0.01,,2013-02-10 02:41:00,
2013-02-09 18:52:00,44.0,30.0,29.85,WSW,241,4.0,10.0,57,0.00,,,0.01,,2013-02-10 02:52:00,
2013-02-09 19:01:00,43.0,32.0,29.85,WNW,290,8.0,12.0,66,0.00,,,0.00,,2013-02-10 03:01:00,
2013-02-09 19:11:00,43.0,32.0,29.85,WNW,290,8.0,12.0,66,0.00,,,0.00,,2013-02-10 03:11:00,
2013-02-09 19:21:00,44.0,33.0,29.86,West,272,6.0,9.0,64,0.00,,,0.00,,2013-02-10 03:21:00,
2013-02-09 19:32:00,44.0,33.0,29.86,West,272,6.0,9.0,64,0.00,,,0.00,,2013-02-10 03:32:00,
2013-02-09 19:41:00,44.0,33.0,29.86,West,272,6.0,9.0,64,0.00,,,0.00,,2013-02-10 03:41:00,
2013-02-09 19:52:00,43.0,32.0,29.86,North,0,0.0,0.0,66,0.00,,,0.00,,2013-02-10 03:52:00,
2013-02-09 20:01:00,43.0,30.0,29.87,North,0,0.0,0.0,59,0.00,,,0.00,,2013-02-10 04:01:00,
2013-02-09 20:11:00,43.0,30.0,29.87,North,0,0.0,0.0,59,0.00,,,0.00,,2013-02-10 04:11:00,
2013-02-09 20:21:00,43.0,30.0,29.87,North,0,0.0,3.0,60,0.00,,,0.00,,2013-02-10 04:21:00,
2013-02-09 20:31:00,43.0,30.0,29.87,North,0,0.0,3.0,60,0.00,,,0.00,,2013-02-10 04:31:00,
2013-02-09 20:41:00,43.0,30.0,29.87,North,0,0.0,3.0,60,0.00,,,0.00,,2013-02-10 04:41:00,
2013-02-09 20:52:00,43.0,32.0,29.88,North,0,0.0,5.0,64,0.00,,,0.00,,2013-02-10 04:52:00,
2013-02-09 21:01:00,43.0,31.0,29.88,North,0,0.0,0.0,62,0.00,,,0.00,,2013-02-10 05:01:00,
2013-02-09 21:11:00,43.0,31.0,29.88,North,0,0.0,0.0,62,0.00,,,0.00,,2013-02-10 05:11:00,
2013-02-09 21:22:00,42.0,35.0,29.88,SSW,199,4.0,5.0,76,0.00,,,0.00,,2013-02-10 05:22:00,
2013-02-09 21:31:00,42.0,35.0,29.88,SSW,199,4.0,5.0,76,0.00,,,0.00,,2013-02-10 05:31:00,
2013-02-09 21:41:00,42.0,35.0,29.88,SSW,199,4.0,5.0,76,0.00,,,0.00,,2013-02-10 05:41:00,
2013-02-09 21:52:00,42.0,37.0,29.88,SSW,196,7.0,8.0,81,0.00,,,0.00,,2013-02-10 05:52:00,
2013-02-09 22:01:00,43.0,35.0,29.89,North,0,0.0,5.0,72,0.00,,,0.00,,2013-02-10 06:01:00,
2013-02-09 22:11:00,43.0,35.0,29.89,North,0,0.0,5.0,72,0.00,,,0.00,,2013-02-10 06:11:00,
2013-02-09 22:21:00,44.0,32.0,29.90,North,0,0.0,5.0,63,0.00,,,0.00,,2013-02-10 06:21:00,
2013-02-09 22:32:00,44.0,32.0,29.90,North,0,0.0,5.0,63,0.00,,,0.00,,2013-02-10 06:32:00,
2013-02-09 22:42:00,44.0,32.0,29.90,North,0,0.0,5.0,63,0.00,,,0.00,,2013-02-10 06:42:00,
2013-02-09 22:52:00,44.0,31.0,29.90,SSW,193,1.0,2.0,59,0.00,,,0.00,,2013-02-10 06:52:00,
2013-02-09 23:01:00,44.0,31.0,29.89,North,0,0.0,0.0,59,0.00,,,0.00,,2013-02-10 07:01:00,
2013-02-09 23:11:00,44.0,31.0,29.89,North,0,0.0,0.0,59,0.00,,,0.00,,2013-02-10 07:11:00,
2013-02-09 23:21:00,44.0,29.0,29.90,North,0,0.0,0.0,56,0.00,,,0.00,,2013-02-10 07:21:00,
2013-02-09 23:31:00,44.0,29.0,29.90,North,0,0.0,0.0,56,0.00,,,0.00,,2013-02-10 07:31:00,
2013-02-09 23:41:00,44.0,29.0,29.90,North,0,0.0,0.0,56,0.00,,,0.00,,2013-02-10 07:41:00,
2013-02-09 23:51:00,43.0,30.0,29.90,North,0,0.0,0.0,59,0.00,,,0.00,,2013-02-10 07:51:00,